�������l�o���
Date,Time,MP-1(��Sv/h),MP-2(��Sv/h),MP-3(��Sv/h),MP-4(��Sv/h),MP-5(��Sv/h),MP-6(��Sv/h),MP-7(��Sv/h),MP-8(��Sv/h),����,����(m/s),���J
2018/01/16,00:00,0.894,1.491,0.934,1.768,1.191,0.490,0.881,0.843,�k,2.5,��
2018/01/16,00:10,0.894,1.490,0.936,1.766,1.190,0.491,0.878,0.843,�k,4.1,��
2018/01/16,00:20,0.895,1.489,0.935,1.767,1.192,0.491,0.879,0.843,�k�k��,4.0,��
2018/01/16,00:30,0.896,1.491,0.936,1.765,1.190,0.492,0.877,0.844,�k�k��,5.6,��
2018/01/16,00:40,0.896,1.491,0.935,1.763,1.190,0.490,0.879,0.842,�k,6.3,��
2018/01/16,00:50,0.896,1.491,0.936,1.767,1.192,0.490,0.879,0.843,�k,5.4,��
2018/01/16,01:00,0.895,1.490,0.934,1.767,1.190,0.490,0.878,0.844,�k�k��,6.1,��
2018/01/16,01:10,0.896,1.491,0.935,1.764,1.191,0.492,0.876,0.844,�k�k��,6.3,��
2018/01/16,01:20,0.896,1.488,0.936,1.766,1.191,0.490,0.880,0.844,�k�k��,5.5,��
2018/01/16,01:30,0.897,1.490,0.935,1.766,1.190,0.491,0.879,0.845,�k��,5.7,��
2018/01/16,01:40,0.895,1.491,0.937,1.766,1.189,0.489,0.879,0.841,�k��,5.6,��
2018/01/16,01:50,0.895,1.490,0.934,1.765,1.194,0.492,0.878,0.845,�k��,4.5,��
2018/01/16,02:00,0.895,1.490,0.934,1.766,1.189,0.490,0.879,0.844,�k��,4.4,��
2018/01/16,02:10,0.896,1.490,0.933,1.766,1.188,0.491,0.880,0.844,�k��,4.0,��
2018/01/16,02:20,0.895,1.492,0.936,1.764,1.190,0.492,0.879,0.843,�k�k��,2.8,��
2018/01/16,02:30,0.896,1.491,0.936,1.763,1.190,0.491,0.881,0.843,�k,2.3,��
2018/01/16,02:40,0.895,1.490,0.934,1.765,1.191,0.489,0.877,0.842,�k,1.4,��
2018/01/16,02:50,0.896,1.488,0.935,1.764,1.188,0.490,0.878,0.844,��,0.6,��
2018/01/16,03:00,0.895,1.489,0.932,1.765,1.190,0.492,0.878,0.842,�쓌,1.9,��
2018/01/16,03:10,0.894,1.490,0.933,1.764,1.189,0.491,0.878,0.843,���쓌,1.4,��
2018/01/16,03:20,0.892,1.489,0.934,1.764,1.191,0.492,0.877,0.844,���쓌,2.0,��
2018/01/16,03:30,0.895,1.489,0.932,1.765,1.188,0.490,0.876,0.843,���쓌,1.7,��
2018/01/16,03:40,0.894,1.489,0.933,1.764,1.190,0.491,0.877,0.842,�쓌,3.7,��
2018/01/16,03:50,0.893,1.487,0.932,1.764,1.190,0.492,0.878,0.842,��쓌,3.5,��
2018/01/16,04:00,0.893,1.488,0.932,1.764,1.189,0.491,0.878,0.843,�쓌,1.8,��
2018/01/16,04:10,0.894,1.488,0.933,1.766,1.188,0.490,0.878,0.844,��쓌,3.6,��
2018/01/16,04:20,0.893,1.488,0.935,1.765,1.191,0.491,0.880,0.842,��,1.7,��
2018/01/16,04:30,0.892,1.485,0.933,1.764,1.190,0.490,0.878,0.842,��,1.4,��
2018/01/16,04:40,0.892,1.488,0.934,1.763,1.188,0.491,0.879,0.842,�k��,1.8,��
2018/01/16,04:50,0.894,1.488,0.935,1.764,1.190,0.490,0.876,0.841,�k��,3.0,��
2018/01/16,05:00,0.895,1.488,0.932,1.766,1.187,0.489,0.878,0.843,���k��,3.0,��
2018/01/16,05:10,0.894,1.490,0.936,1.763,1.187,0.490,0.876,0.841,�k��,3.1,��
2018/01/16,05:20,0.895,1.488,0.934,1.764,1.186,0.490,0.877,0.841,��,2.6,��
2018/01/16,05:30,0.894,1.487,0.933,1.762,1.189,0.489,0.876,0.840,���쓌,2.3,��
2018/01/16,05:40,0.894,1.486,0.933,1.761,1.187,0.489,0.877,0.843,��,2.3,��
2018/01/16,05:50,0.892,1.489,0.933,1.758,1.185,0.489,0.877,0.842,��,1.7,��
2018/01/16,06:00,0.894,1.487,0.931,1.761,1.189,0.489,0.876,0.843,���k��,3.0,��
2018/01/16,06:10,0.893,1.485,0.934,1.762,1.188,0.489,0.876,0.841,��,2.3,��
2018/01/16,06:20,0.894,1.489,0.932,1.762,1.187,0.489,0.877,0.842,��,2.3,��
2018/01/16,06:30,0.892,1.487,0.932,1.763,1.187,0.490,0.876,0.842,���쓌,1.7,��
2018/01/16,06:40,0.891,1.485,0.933,1.763,1.188,0.490,0.876,0.841,��,1.8,��
2018/01/16,06:50,0.891,1.487,0.932,1.765,1.187,0.489,0.876,0.841,���k��,0.9,��
2018/01/16,07:00,0.892,1.487,0.931,1.760,1.186,0.488,0.875,0.844,���k��,0.6,��
2018/01/16,07:10,0.892,1.489,0.930,1.760,1.186,0.489,0.878,0.840,�쓌,1.1,��
2018/01/16,07:20,0.893,1.488,0.932,1.761,1.185,0.489,0.874,0.842,�쓌,1.1,��
2018/01/16,07:30,0.892,1.488,0.931,1.763,1.188,0.489,0.874,0.842,��,0.9,��
2018/01/16,07:40,0.893,1.485,0.932,1.763,1.187,0.490,0.877,0.842,�k��,1.7,��
2018/01/16,07:50,0.892,1.483,0.931,1.762,1.187,0.490,0.876,0.841,�k��,0.8,��
2018/01/16,08:00,0.894,1.487,0.930,1.760,1.188,0.489,0.875,0.841,��,0.6,��
2018/01/16,08:10,0.894,1.484,0.932,1.762,1.190,0.490,0.876,0.843,��,0.6,��
2018/01/16,08:20,0.894,1.488,0.932,1.763,1.188,0.489,0.878,0.841,���쓌,0.8,��
2018/01/16,08:30,0.895,1.489,0.932,1.762,1.189,0.491,0.877,0.841,���쓌,1.7,��
2018/01/16,08:40,0.892,1.487,0.931,1.763,1.186,0.488,0.876,0.842,��쓌,2.8,��
2018/01/16,08:50,0.893,1.488,0.930,1.765,1.189,0.488,0.878,0.842,-,CALM,��
2018/01/16,09:00,0.896,1.489,0.929,1.766,1.191,0.490,0.878,0.842,-,CALM,��
2018/01/16,09:10,0.895,1.489,0.932,1.766,1.187,0.489,0.877,0.842,���쐼,0.6,��
2018/01/16,09:20,0.895,1.486,0.931,1.765,1.190,0.491,0.879,0.843,�k�k��,1.1,��
2018/01/16,09:30,0.895,1.491,0.934,1.767,1.189,0.491,0.882,0.842,-,CALM,��
2018/01/16,09:40,0.895,1.487,0.932,1.766,1.188,0.489,0.882,0.842,-,CALM,��
2018/01/16,09:50,0.894,1.485,0.933,1.767,1.190,0.491,0.877,0.842,���쐼,1.2,��
2018/01/16,10:00,0.897,1.489,0.934,1.765,1.189,0.491,0.878,0.843,��,1.2,��
2018/01/16,10:10,0.897,1.488,0.938,1.767,1.192,0.493,0.877,0.842,-,CALM,��
2018/01/16,10:20,0.896,1.487,0.935,1.768,1.192,0.491,0.878,0.842,��,0.9,��
2018/01/16,10:30,0.895,1.484,0.935,1.767,1.193,0.491,0.877,0.842,���쐼,3.0,��
2018/01/16,10:40,0.896,1.486,0.935,1.767,1.191,0.492,0.878,0.843,���쐼,3.6,��
2018/01/16,10:50,0.897,1.485,0.936,1.768,1.192,-,0.878,0.842,�k��,6.2,��
2018/01/16,11:00,0.898,1.485,0.934,1.769,1.194,-,0.879,0.842,���k��,5.6,��
2018/01/16,11:10,0.895,1.485,0.933,1.766,1.196,-,0.877,0.844,���k��,6.7,��
2018/01/16,11:20,0.898,1.482,0.931,1.769,1.191,-,0.879,0.844,���k��,8.0,��
2018/01/16,11:30,0.898,1.490,0.934,1.767,1.195,-,0.880,0.845,�k��,7.6,��
2018/01/16,11:40,0.901,1.487,0.935,1.770,1.195,-,0.879,0.844,���k��,5.4,��
2018/01/16,11:50,0.898,1.489,0.935,1.767,1.194,-,0.880,0.844,���k��,3.4,��
2018/01/16,12:00,0.897,1.491,0.935,1.774,1.192,-,0.877,0.843,�k��,2.5,��
2018/01/16,12:10,0.898,1.489,0.938,1.769,1.192,-,0.876,0.844,���쓌,2.9,��
2018/01/16,12:20,0.896,1.487,0.936,1.769,1.192,-,0.878,0.844,���쓌,3.8,��
2018/01/16,12:30,0.896,1.488,0.938,1.771,1.193,-,0.876,0.844,���쓌,4.4,��
2018/01/16,12:40,0.897,1.488,0.937,1.772,1.195,-,0.877,0.845,���쓌,3.4,��
2018/01/16,12:50,0.898,1.487,0.937,1.769,1.193,-,0.879,0.844,���쓌,4.8,��
2018/01/16,13:00,0.900,1.487,0.938,1.769,1.193,-,0.877,0.849,�쓌,4.5,��
2018/01/16,13:10,0.900,1.486,0.936,1.771,1.196,-,0.878,0.843,�쓌,4.6,��
2018/01/16,13:20,0.897,1.486,0.937,1.773,1.196,-,0.879,0.842,�쓌,5.3,��
2018/01/16,13:30,0.900,1.488,0.938,1.770,1.194,-,0.878,0.842,��쓌,5.1,��
2018/01/16,13:40,0.899,1.485,0.938,1.769,1.196,-,0.880,0.840,�쓌,5.1,��
2018/01/16,13:50,0.898,1.483,0.938,1.771,1.194,-,0.881,0.841,�쓌,5.1,��
2018/01/16,14:00,0.897,1.488,0.939,1.769,1.195,-,0.880,0.841,��쓌,4.4,��
2018/01/16,14:10,0.899,1.486,0.939,1.771,1.196,-,0.880,0.842,��쓌,4.8,��
2018/01/16,14:20,0.899,1.488,0.937,1.771,1.197,-,0.880,0.842,�쓌,5.5,��
2018/01/16,14:30,0.897,1.488,0.936,1.772,1.195,-,0.879,0.843,�쓌,4.7,��
2018/01/16,14:40,0.897,1.487,0.935,1.770,1.197,-,0.878,0.844,�쓌,3.6,��
2018/01/16,14:50,0.899,1.492,0.935,1.768,1.196,-,0.879,0.846,�쓌,3.4,��
2018/01/16,15:00,0.899,1.490,0.939,1.770,1.197,-,0.879,0.844,�쓌,3.4,��
2018/01/16,15:10,0.901,1.490,0.939,1.769,1.196,-,0.880,0.844,�쓌,3.1,��
2018/01/16,15:20,0.899,1.495,0.934,1.770,1.197,-,0.878,0.843,�쓌,3.8,��
2018/01/16,15:30,0.898,1.492,0.939,1.771,1.196,-,0.880,0.844,��쓌,2.8,��
2018/01/16,15:40,0.898,1.497,0.939,1.770,1.196,-,0.879,0.844,�쓌,2.8,��
2018/01/16,15:50,0.898,1.497,0.939,1.769,1.196,-,0.877,0.842,�쓌,3.2,��
2018/01/16,16:00,0.896,1.496,0.940,1.770,1.196,-,0.881,0.843,�쓌,2.0,��
2018/01/16,16:10,0.896,1.493,0.938,1.769,1.197,-,0.879,0.844,�쓌,1.7,��
2018/01/16,16:20,0.896,1.494,0.938,1.772,1.196,0.495,0.880,0.844,��쓌,3.0,��
2018/01/16,16:30,0.897,1.494,0.937,1.769,1.194,0.494,0.881,0.842,��쓌,4.1,��
2018/01/16,16:40,0.897,1.496,0.938,1.770,1.198,0.490,0.880,0.841,�쓌,3.1,��
2018/01/16,16:50,0.897,1.494,0.937,1.769,1.196,0.492,0.880,0.842,��쓌,3.1,��
2018/01/16,17:00,0.898,1.496,0.936,1.768,1.195,0.492,0.881,0.844,��쓌,4.0,��
2018/01/16,17:10,0.896,1.496,0.940,1.768,1.196,0.492,0.879,0.843,��,4.0,��
2018/01/16,17:20,0.897,1.494,0.937,1.770,1.196,0.491,0.881,0.844,��,3.5,��
2018/01/16,17:30,0.895,1.496,0.938,1.769,1.197,0.492,0.879,0.842,��쓌,4.4,��
2018/01/16,17:40,0.897,1.495,0.936,1.766,1.194,0.492,0.879,0.843,��,5.0,��
2018/01/16,17:50,0.897,1.495,0.936,1.770,1.196,0.492,0.879,0.842,��쓌,6.3,��
2018/01/16,18:00,0.896,1.494,0.938,1.770,1.194,0.493,0.878,0.840,��쓌,5.2,��
2018/01/16,18:10,0.897,1.494,0.937,1.769,1.194,0.492,0.880,0.842,��,5.9,��
2018/01/16,18:20,0.897,1.492,0.938,1.769,1.196,0.491,0.879,0.844,��,4.5,��
2018/01/16,18:30,0.897,1.495,0.936,1.767,1.196,0.492,0.879,0.844,��,5.3,��
2018/01/16,18:40,0.897,1.496,0.936,1.767,1.197,0.491,0.877,0.843,��,7.1,��
2018/01/16,18:50,0.899,1.492,0.938,1.765,1.195,0.491,0.879,0.843,��,7.2,��
2018/01/16,19:00,0.898,1.493,0.936,1.766,1.193,0.491,0.878,0.842,��,6.8,��
2018/01/16,19:10,0.898,1.496,0.938,1.765,1.194,0.493,0.876,0.842,��,8.4,��
2018/01/16,19:20,0.895,1.494,0.936,1.769,1.194,0.491,0.878,0.843,��,8.2,��
2018/01/16,19:30,0.896,1.496,0.939,1.771,1.196,0.492,0.879,0.844,��,9.3,��
2018/01/16,19:40,0.896,1.495,0.937,1.766,1.192,0.492,0.879,0.841,��,9.1,��
2018/01/16,19:50,0.900,1.494,0.938,1.770,1.195,0.492,0.880,0.844,��,8.7,��
2018/01/16,20:00,0.897,1.492,0.937,1.770,1.195,0.491,0.879,0.842,��,8.4,��
2018/01/16,20:10,0.897,1.496,0.937,1.767,1.197,0.492,0.879,0.841,��,8.1,��
2018/01/16,20:20,0.898,1.493,0.937,1.767,1.194,0.493,0.880,0.843,��,7.4,��
2018/01/16,20:30,0.897,1.492,0.939,1.770,1.195,0.493,0.879,0.844,��쐼,6.6,��
2018/01/16,20:40,0.898,1.493,0.938,1.766,1.194,0.493,0.879,0.842,��쐼,6.6,��
2018/01/16,20:50,0.897,1.492,0.938,1.767,1.195,0.491,0.878,0.843,��쐼,7.0,��
2018/01/16,21:00,0.897,1.493,0.938,1.770,1.195,0.492,0.878,0.845,��쐼,6.0,��
2018/01/16,21:10,0.898,1.494,0.936,1.770,1.195,0.491,0.879,0.843,��쐼,4.8,��
2018/01/16,21:20,0.897,1.494,0.938,1.766,1.196,0.492,0.879,0.843,��쐼,4.9,��
2018/01/16,21:30,0.897,1.492,0.938,1.769,1.194,0.491,0.880,0.843,�쐼,4.0,��
2018/01/16,21:40,0.898,1.493,0.939,1.767,1.196,0.492,0.879,0.843,��쐼,3.7,��
2018/01/16,21:50,0.898,1.495,0.938,1.768,1.194,0.492,0.878,0.842,��쐼,4.1,��
2018/01/16,22:00,0.900,1.493,0.939,1.770,1.195,0.491,0.880,0.843,��쐼,6.1,��
2018/01/16,22:10,0.898,1.494,0.938,1.770,1.197,0.493,0.879,0.845,�쐼,5.4,��
2018/01/16,22:20,0.898,1.492,0.939,1.767,1.197,0.492,0.879,0.844,�쐼,7.3,��
2018/01/16,22:30,0.899,1.492,0.937,1.769,1.196,0.494,0.880,0.844,�쐼,9.1,��
2018/01/16,22:40,0.897,1.493,0.937,1.770,1.197,0.493,0.879,0.844,��쐼,8.9,��
2018/01/16,22:50,0.899,1.494,0.939,1.768,1.198,0.493,0.882,0.845,�쐼,7.5,��
2018/01/16,23:00,0.899,1.495,0.939,1.770,1.194,0.492,0.881,0.843,�쐼,7.0,��
2018/01/16,23:10,0.896,1.492,0.937,1.770,1.196,0.493,0.881,0.845,��쐼,6.6,��
2018/01/16,23:20,0.899,1.492,0.939,1.769,1.195,0.492,0.881,0.846,�쐼,6.2,��
2018/01/16,23:30,0.899,1.491,0.937,1.765,1.198,0.492,0.879,0.845,��쐼,6.9,��
2018/01/16,23:40,0.898,1.494,0.936,1.772,1.195,0.493,0.880,0.844,�쐼,2.8,��
2018/01/16,23:50,0.897,1.497,0.936,1.767,1.195,0.494,0.881,0.845,���k��,1.5,��
